SCP
1 1 1 1 1 1 1 1 0 0 0 0 0 0 1 1 1 1 1 1 1 0 0 0 0 0 0 0 0 0 0 0 0 0 0 0 0 0 0 0 0 0 0
1 1 1 1 1 1 1 1 1 1 0 0 0 0 1 1 1 1 1 1 1 1 0 0 0 0 0 0 0 0 0 0 0 0 0 0 0 0 0 0 0 0 0
1 1 1 1 1 1 1 1 1 1 1 0 0 0 1 1 1 1 1 1 1 1 1 1 1 1 1 1 1 1 1 0 0 1 1 1 1 0 0 0 1 1 0
1 1 1 1 1 1 1 1 1 1 1 1 1 1 1 1 1 1 1 1 1 1 1 1 1 1 1 1 1 1 1 1 1 1 1 1 1 1 1 1 1 1 1
1 1 1 1 1 1 1 1 1 1 1 1 1 0 1 1 1 1 1 1 1 2 2 2 1 1 1 1 1 1 1 1 1 1 1 1 1 1 1 1 1 1 0
1 1 1 2 2 1 1 1 1 1 1 1 1 1 1 1 1 1 1 1 1 2 2 2 3 2 2 1 1 1 1 1 1 1 1 1 1 1 1 1 1 1 0
1 1 2 3 3 2 1 1 2 2 1 1 1 1 1 1 1 1 1 1 2 2 2 3 3 4 3 2 2 2 2 2 1 1 1 1 1 1 1 1 1 1 0
2 2 2 4 4 3 2 2 2 2 2 2 2 1 1 1 1 1 1 2 2 2 2 2 3 4 4 3 2 2 2 2 1 1 1 1 1 1 1 1 1 1 1
3 2 3 4 4 3 2 2 3 3 4 4 3 2 1 1 1 1 1 1 2 2 2 2 2 2 3 3 3 2 2 1 1 2 2 2 1 1 1 1 1 1 1
3 3 3 4 5 4 3 3 3 4 4 5 4 3 2 1 1 1 1 1 1 1 2 1 1 2 2 2 2 2 2 1 1 1 2 2 1 1 1 1 1 1 1
3 3 3 4 4 4 3 3 3 4 4 5 4 3 2 2 1 1 1 1 1 1 1 1 1 1 2 2 2 2 1 1 1 1 1 1 1 1 1 1 1 1 1
3 3 3 4 4 3 3 3 4 5 5 5 4 3 3 3 2 1 1 1 1 1 2 2 2 2 2 2 2 1 1 1 1 1 1 1 1 1 1 1 1 1 1
4 4 4 4 4 4 4 4 5 6 7 6 5 4 3 3 2 1 1 1 1 1 2 2 2 2 2 2 2 1 1 1 1 1 1 1 1 1 1 1 1 1 1
4 4 5 5 5 5 5 6 6 7 7 7 6 5 4 2 2 1 1 1 1 1 1 2 2 2 2 2 2 1 1 1 1 0 0 0 0 1 1 1 1 1 1
4 5 6 7 7 7 6 7 7 7 7 6 5 4 3 2 2 2 1 1 1 1 1 1 2 2 2 2 2 2 2 1 0 0 0 0 0 0 0 0 0 0 0
4 6 7 8 8 7 7 7 6 6 5 4 4 3 3 2 3 2 2 2 2 2 1 1 2 2 2 2 1 2 2 1 1 0 0 0 0 0 0 0 0 0 0
6 7 8 8 7 7 7 6 5 4 4 4 4 3 3 3 3 3 3 3 2 2 2 1 1 1 1 1 1 2 2 1 1 1 0 0 0 0 0 0 0 0 0
7 7 8 8 7 7 7 5 4 4 4 4 4 4 4 3 3 3 3 3 3 2 2 1 1 1 1 1 2 2 1 1 1 1 0 0 0 0 0 0 0 0 0
7 7 7 7 8 8 7 5 5 4 4 4 4 4 4 3 3 3 3 3 3 2 2 1 1 1 1 1 2 1 1 1 1 1 1 0 0 0 0 0 0 0 0
7 7 6 7 7 7 6 5 5 4 4 4 4 4 3 3 2 2 2 2 2 2 1 1 1 1 1 1 1 1 1 1 1 1 1 1 0 0 0 0 0 0 0
6 6 5 5 5 5 4 4 4 4 4 4 3 3 2 2 1 1 1 2 2 2 1 1 1 1 1 1 1 1 1 1 1 1 1 1 1 1 0 0 0 0 0
4 4 4 3 3 3 2 2 3 3 3 3 2 2 2 1 1 1 1 1 1 1 1 1 1 1 1 1 1 1 0 0 1 1 1 1 1 1 1 1 0 0 0
4 4 3 3 3 2 1 1 1 2 2 2 2 2 1 1 1 1 1 1 1 1 1 1 1 1 1 1 1 1 1 1 1 1 1 1 1 1 1 1 0 0 0
4 4 4 4 3 2 1 1 1 1 2 2 2 2 2 1 1 1 1 1 1 1 1 0 1 1 1 1 1 1 1 1 1 1 1 1 1 1 1 1 0 0 0
4 4 4 4 4 3 2 1 1 1 2 2 2 2 2 2 1 1 1 1 1 1 1 1 0 0 0 0 1 1 1 1 1 1 1 2 2 2 1 1 1 0 0
4 4 4 4 4 3 2 1 1 1 2 2 2 2 2 2 1 1 1 1 1 1 1 1 0 0 0 0 1 1 1 1 1 1 1 2 2 2 1 1 1 1 0
Wind_Speed
3 3 2 2 2 2 2 2 1 2 2 1 2 2 2 3 5 7 6 11 11 10 10 10 9 9 9 8 8 8 8 8 8 7 7 8 7 7 7 7 7 6 6
3 3 2 1 1 1 2 1 2 2 1 1 1 1 1 2 4 7 7 8 11 11 10 10 10 10 9 9 9 8 8 8 8 8 8 7 7 7 7 7 7 6 6
4 3 3 2 2 2 2 1 1 1 1 2 1 1 1 1 2 4 7 6 7 10 11 11 11 10 10 10 10 9 9 8 8 9 8 8 8 8 7 7 7 7 7
3 3 2 2 2 2 2 2 1 1 1 1 1 1 2 2 3 3 4 5 6 7 10 13 12 11 11 11 11 11 10 10 10 10 9 9 9 9 8 8 8 7 7
4 2 1 2 2 2 2 2 2 1 1 1 2 2 2 2 3 4 4 5 6 6 7 11 14 13 13 13 12 12 12 11 11 11 11 11 11 10 10 9 9 9 8
4 2 2 3 3 2 1 1 2 0 1 2 3 2 2 3 3 4 5 5 5 7 8 9 9 10 15 14 13 13 13 13 12 12 12 12 12 11 11 11 11 10 10
4 3 2 3 2 2 2 2 2 2 2 2 2 1 2 3 4 4 4 4 5 6 6 8 8 7 8 15 14 14 15 15 14 14 14 13 13 12 12 12 12 12 11
4 5 4 3 3 2 3 3 2 2 2 2 1 1 2 2 3 5 4 4 5 4 5 8 7 7 6 6 10 16 16 16 16 15 14 14 14 13 13 14 13 13 13
5 4 4 4 3 3 3 3 3 4 3 2 2 2 2 2 2 2 4 4 4 4 5 4 7 8 8 6 7 14 18 16 16 17 16 15 14 14 14 14 15 14 14
5 5 5 4 3 3 3 4 4 3 4 3 3 3 3 2 1 2 2 3 4 5 5 6 7 7 8 6 8 12 17 17 16 17 16 15 15 14 15 15 16 15 15
5 5 5 4 4 3 3 4 3 4 3 4 3 2 3 3 4 3 3 3 3 3 5 6 5 5 7 6 5 9 15 16 16 16 15 15 15 15 15 15 16 16 16
4 5 5 4 4 3 4 4 4 5 4 4 4 3 3 3 3 4 4 3 3 4 4 4 5 4 5 6 8 11 13 16 16 15 15 15 14 14 15 15 16 16 16
3 4 5 4 4 4 4 4 4 4 4 5 5 4 4 4 4 3 3 3 3 3 3 3 3 4 5 5 6 10 11 13 14 13 13 13 13 13 13 14 15 15 15
3 4 4 4 4 4 4 3 3 4 4 4 6 5 4 5 4 3 3 3 3 3 3 3 2 3 2 3 5 9 6 12 12 12 12 12 12 12 12 12 12 12 12
3 3 4 4 4 4 3 3 3 4 4 4 5 5 5 4 4 4 3 3 3 4 4 3 2 1 2 1 4 5 5 10 12 12 12 12 11 11 11 11 11 10 10
2 2 4 4 3 3 3 3 3 3 4 4 4 4 4 4 3 3 3 3 3 4 3 2 2 2 2 2 2 3 3 7 10 10 11 11 11 11 11 11 11 10 10
3 3 3 3 3 3 3 2 3 3 3 3 4 4 4 4 3 3 3 3 3 3 4 4 2 2 2 1 1 2 2 3 5 9 10 10 10 10 10 10 11 11 10
3 2 2 2 2 2 1 2 3 3 3 3 3 3 3 3 3 3 3 3 3 3 3 4 3 2 2 2 2 3 3 3 3 7 10 10 10 10 10 9 9 9 9
2 2 2 1 1 1 1 1 2 3 3 2 2 2 2 3 3 2 3 3 3 3 2 3 3 2 2 2 2 2 3 2 3 4 7 8 9 9 9 9 9 9 8
2 2 1 1 1 1 1 1 1 1 1 2 2 2 3 3 3 3 3 3 2 3 2 2 2 2 2 2 1 2 2 2 3 4 2 3 6 8 9 9 9 9 9
2 2 1 1 0 1 2 2 2 1 1 2 2 3 3 5 5 4 3 3 3 2 1 1 2 1 1 2 2 2 2 2 3 2 1 1 2 3 4 5 7 8 8
2 2 1 2 3 3 5 5 4 2 2 3 3 3 2 4 4 4 5 5 5 3 2 1 1 2 2 2 2 2 2 2 3 2 1 2 1 1 1 1 3 6 7
3 2 3 4 5 5 7 6 5 3 4 4 4 4 3 4 5 3 3 4 5 6 4 1 2 3 3 3 3 3 3 3 2 3 2 2 1 1 1 1 2 2 3
3 3 4 4 5 6 8 7 5 3 4 5 5 5 5 6 6 5 3 4 5 6 5 4 3 3 3 3 3 2 2 3 2 2 2 2 2 2 2 1 2 2 2
4 4 5 5 6 6 8 8 5 3 4 5 5 6 6 5 8 7 5 5 4 4 5 6 5 5 6 7 5 3 3 3 3 2 3 1 2 2 2 1 0 1 2
4 5 6 6 6 6 8 9 6 3 3 4 4 5 9 8 8 8 5 4 4 3 3 4 3 3 4 5 6 4 3 3 3 2 4 3 2 2 2 1 1 1 1
Wind_Direction
132 132 128 144 164 154 155 153 140 103 91 67 47 51 71 87 118 125 136 153 155 158 162 165 165 168 169 169 169 168 171 170 170 169 170 170 170 170 172 172 169 166 167
126 128 141 154 143 121 107 103 119 121 116 88 88 75 94 94 110 131 143 160 168 170 175 178 179 181 181 181 182 183 183 182 180 180 182 183 183 183 185 186 184 181 179
132 141 150 177 151 128 123 121 124 131 166 157 157 169 130 118 123 131 153 162 173 184 186 187 188 190 192 193 193 193 194 194 192 191 193 195 196 196 197 197 196 193 192
151 161 164 158 143 144 152 144 189 162 160 149 172 208 166 165 168 171 169 170 173 180 191 196 196 198 201 203 204 203 203 202 201 201 202 205 206 206 205 204 203 201 201
167 178 145 126 148 155 176 192 151 173 178 208 215 206 198 192 192 199 188 184 183 174 179 194 199 202 206 208 210 210 209 208 208 209 211 212 214 213 211 209 209 209 210
175 175 157 162 175 175 173 143 122 169 257 251 259 222 229 204 206 204 202 196 190 191 187 182 190 206 212 212 213 215 214 213 213 215 218 217 218 217 215 213 213 215 217
176 184 197 167 193 184 169 171 160 206 237 243 260 267 255 235 221 213 207 201 200 204 190 177 185 195 203 214 215 216 217 217 216 218 221 221 221 220 218 218 218 220 221
187 192 195 195 192 184 189 200 191 222 246 230 222 243 264 258 250 231 202 197 205 206 203 195 193 194 196 190 208 213 217 220 220 220 221 223 223 222 221 222 222 223 224
194 211 187 204 199 193 196 205 205 213 235 244 225 214 234 242 255 249 227 208 200 199 204 204 207 201 202 195 194 209 214 218 221 222 222 223 224 223 223 225 225 225 225
198 202 198 201 204 210 200 213 210 217 223 241 240 232 241 252 237 268 273 235 218 212 213 216 217 203 202 201 200 200 207 213 218 222 224 225 225 225 225 227 228 229 229
205 207 201 199 204 217 214 222 221 221 227 238 247 244 240 243 232 228 252 258 241 226 222 222 220 208 201 197 197 200 201 207 213 219 223 225 226 227 228 229 232 234 232
206 207 203 198 207 218 223 221 224 226 231 242 255 258 241 234 233 231 236 248 251 246 234 229 218 208 199 194 206 202 196 202 209 215 219 223 226 228 230 231 233 235 235
199 206 209 198 209 215 224 222 225 237 234 242 247 253 256 252 247 241 245 253 260 262 244 234 221 216 211 196 199 198 193 195 204 211 218 223 225 227 228 231 233 236 236
208 197 197 202 208 216 228 221 228 232 233 236 246 247 255 259 256 249 241 249 269 271 268 256 227 220 224 208 191 189 192 194 201 207 213 219 223 226 227 228 230 231 232
220 193 190 209 211 220 230 219 233 239 237 235 246 249 251 260 262 259 253 232 233 256 263 260 260 244 248 219 188 192 189 194 201 205 210 214 218 221 223 224 225 226 229
214 197 199 206 209 218 224 227 242 243 246 249 250 254 251 256 259 257 258 248 229 228 252 264 272 271 264 255 214 223 209 190 202 207 211 214 216 217 217 218 221 223 225
206 203 200 207 215 224 228 232 251 246 246 255 258 259 260 260 261 264 259 255 245 227 244 261 262 277 267 264 244 251 232 199 201 208 210 214 216 217 218 218 220 221 222
200 192 201 211 224 227 240 249 266 272 266 270 274 283 291 289 275 271 270 264 259 245 237 257 271 273 280 266 242 249 259 241 229 210 209 214 216 216 215 215 218 220 222
170 176 186 190 226 296 298 284 277 283 284 287 297 309 318 324 317 297 283 283 278 274 254 249 268 278 283 293 290 282 284 283 272 236 208 211 214 213 214 215 218 220 222
162 158 161 157 135 28 353 316 295 300 325 345 1 14 15 11 353 334 316 322 309 301 293 279 277 284 282 291 303 298 302 298 280 273 263 205 203 210 215 215 216 217 218
132 116 123 131 127 73 352 335 308 344 8 359 9 20 37 38 31 15 2 357 344 335 335 330 307 308 317 330 322 298 295 294 280 267 264 250 208 210 218 220 222 221 220
88 88 76 71 56 38 19 23 24 25 25 26 17 11 29 39 31 42 45 40 32 20 2 355 342 327 327 326 328 323 316 316 301 328 319 290 277 230 212 206 205 205 215
87 80 75 79 72 49 37 36 34 43 42 33 23 17 21 16 23 34 54 56 42 35 29 6 358 349 347 352 347 340 338 326 311 318 326 315 350 350 320 40 120 166 204
83 75 71 75 74 52 37 35 35 59 56 50 39 31 31 23 17 13 42 53 49 40 33 37 32 13 13 360 353 334 315 316 314 352 5 328 341 334 336 53 127 138 175
84 78 71 65 64 50 35 31 35 67 69 55 47 42 37 34 15 24 46 51 49 44 47 52 56 47 37 27 18 10 0 357 342 349 3 339 334 325 308 298 328 217 244
88 83 76 69 65 54 43 40 38 65 68 63 55 51 47 41 29 31 40 43 38 20 23 30 37 27 30 29 27 21 6 2 351 347 356 349 340 342 322 325 352 335 300